BREEZE-M DEB, 34224

Orbit data source: Space-Track

BREEZE-M DEB, 34224 is space debris in HEO originally from a launch on Tue, 28 Feb 2006 UTC launched from the Tyuratam Missile And Space Complex (TTMTR). Debris objects in space refer to the collection of defunct objects orbiting the Earth. Examples of debris include non-operational satellites, rocket bodies, and fragments generated from explosions, collisions, or faulty payload assembly.

Loading next visibility...
Identifier
34224, 2006-006AP
Orbit
HEO
Country
Flag of CISCIS
Related business
Manufacturer
Khrunichev
Mission
Spacecraft
Bus & Motor
Unknown
Mass
Unknown
Launch date (UTC)
2006-02-28 (20 years ago)
Launch vehicle
Unknown
Launch site
Tyuratam Missile And Space Complex (TTMTR)
Object type
Payload
Rocket body
Debris
Shape & HBR
Unknown shape, 1.1 m
Radar Cross Section
Medium (>0.1 m² and <1 m²)

Expand to show TLE details & history
Last TLE update: 2 weeks ago

TLE from 2 weeks ago
0 BREEZE-M DEB
1 34224U 06006AP  26150.65451390  .00004537  00000-0  12079-1 0  9993
2 34224  52.1743 274.8547 4949605 169.0492 207.9875  5.38591251  2744
Epoch: 2026-05-30T15:42Z
TLE epoch observation values (Epoch: 2026-05-30T15:42:30.000Z)
Latitude
-0.00002°
Longitude
151.05214°
Altitude
13,811.167 km
Speed
3.24 km/s
True Right ascension
18h 19m 22s
True Declination
0° 00' 00"
Sunlit
Object was in daylight at epoch
Visualization orbit readout
Latitude
Unknown
Longitude
Unknown
Altitude
Unknown
Speed
Unknown
Apparent Right ascension
Unknown
Apparent Declination
Unknown
Sunlit
N/A
Visualization observer readout
Local Sidereal Time
17:17:00
Azimuth
Unknown
Elevation
Unknown
Doppler factor
Unknown
Orbital elements
Apogee altitude
14,174.562 km
Perigee altitude
565.14 km
Semi-major axis
13,747.988 km
Eccentricity
0.49496
Inclination
52.1743°
RAAN
274.8547°
Arg. of periapsis
169.0492°
True anomaly
191.01185°
Mean anomaly
207.9875°
Eccentric anomaly
198.8329°
Mean motion
1.34643 °/min
Orbital period
267.37 mins
BSTAR
0.012079
Loading maneuver chart data...
Computing Atmospheric mass density...
Loading historical data...
Loading historical data...
Loading historical data...
Loading historical data...
Loading historical data...
Loading historical data...
Loading historical data...

Documentation

Showing up to 5 results
|